This is the latest recevied weather packets stored in our database for station/object W5GMO. If no packets are shown the sender has not sent any weather packets the latest 10 day(s).
| Time | Temp. | Humidity | Pressure | Rain* | Wind** | Luminosity | Snow |
|---|---|---|---|---|---|---|---|
| 1788139982 | 23.33° C | 1% | 1019.7 hPa | 0 mm | - | 0 W/m² | - |
| 1788139677 | 23.33° C | 1% | 1019.7 hPa | 0 mm | - | 0 W/m² | - |
| 1788139373 | 23.33° C | 1% | 1019.7 hPa | 0 mm | - | 0 W/m² | - |
| 1788139071 | 23.33° C | 1% | 1019.5 hPa | 0 mm | - | 0 W/m² | - |
| 1788138768 | 23.33° C | 1% | 1019.5 hPa | 0 mm | - | 0 W/m² | - |
| 1788138463 | 23.33° C | 1% | 1019.1 hPa | 1.27 mm | - | 0 W/m² | - |
| 1788138163 | 23.33° C | 1% | 1019.1 hPa | 3.05 mm | - | 0 W/m² | - |
| 1788137859 | 23.33° C | 1% | 1019.3 hPa | 3.05 mm | - | 0 W/m² | - |
| 1788137554 | 22.78° C | 1% | 1019.3 hPa | 1.27 mm | - | 0 W/m² | - |
| 1788137249 | 22.78° C | 1% | 1019.3 hPa | 0 mm | - | 0 W/m² | - |
| 1788136945 | 22.78° C | 1% | 1019.4 hPa | 1.78 mm | - | 0 W/m² | - |
| 1788136641 | 22.22° C | 1% | 1019.7 hPa | 3.05 mm | - | 0 W/m² | - |
| 1788136337 | 22.22° C | 1% | 1019.7 hPa | 6.1 mm | - | 0 W/m² | - |
| 1788136036 | 22.78° C | 1% | 1019.9 hPa | 10.67 mm | - | 0 W/m² | - |
| 1788135730 | 22.78° C | 1% | 1020.1 hPa | 10.67 mm | - | 0 W/m² | - |
| 1788135427 | 23.33° C | 1% | 1020.2 hPa | 7.11 mm | - | 0 W/m² | - |
| 1788135126 | 23.89° C | 1% | 1020.3 hPa | 8.89 mm | - | 0 W/m² | - |
| 1788134823 | 24.44° C | 1% | 1020.1 hPa | 7.87 mm | - | 0 W/m² | - |
| 1788134518 | 26.11° C | 1% | 1020 hPa | 3.56 mm | - | 0 W/m² | - |
| 1788134217 | 28.89° C | 1% | 1020 hPa | 0 mm | - | 0 W/m² | - |
| 1788133912 | 29.44° C | 1% | 1019.3 hPa | 0 mm | - | 0 W/m² | - |
| 1788133606 | 29.44° C | 1% | 1019.2 hPa | 0 mm | - | 0 W/m² | - |
| 1788133297 | 29.44° C | 1% | 1019.1 hPa | 0 mm | - | 0 W/m² | - |
| 1788132992 | 29.44° C | 1% | 1018.8 hPa | 0 mm | - | 1 W/m² | - |
| 1788132688 | 29.44° C | 1% | 1018.8 hPa | 0 mm | - | 2 W/m² | - |
* Rain latest hour (hover to see other rain measurements)
** Current wind speed in m/s (hover to see current wind gust speed)